Location: Dallas
(32.7833°N, 96.8000°W)
Time: 00:55:26
(UTC-05:00)

Envisat - Pass Details

Date: 05 September 2016
Orbit: 764 x 766 km, 98.1° (Epoch: 05 July)

Event Time Altitude Azimuth Distance (km) Brightness Sun altitude
Exits shadow 22:16:59 25° 14° (NNE) 1,513 4.6 -30.6°
Drops below altitude 10° 22:19:12 10° 1° (N) 2,305 5.8 -31.0°
Sets 22:21:35 0° 356° (N) 3,235 6.7 -31.4°
